Location: Bridgewater
(44.3670°N, 64.5170°W)
Time: 12:57:44
(UTC-03:00)

Amateur Radio Satellites - All Passes

Search period start: 28 April 2015 12:27
Search period end: 29 April 2015 12:27
Location: Bridgewater, 44.3670°N, 64.5170°W

Satellite Date Start Highest point End Downlink Frequencies (MHz)
Time Altitude Azimuth
Oscar 11 28 Apr 12:30:24 12:32:48 14° 297° (WNW) 12:35:03 145.826/435.025
QB50P2 28 Apr 12:36:28 12:39:34 19° 268° (W) 12:42:36 145.880/145.840
ZACube-1 28 Apr 12:36:59 12:40:33 22° 294° (WNW) 12:43:59 437.345
ANTELSAT 28 Apr 12:40:02 12:41:29 11° 275° (W) 12:42:41 437.575/2403.000
CUBEBUG 1 28 Apr 12:46:41 12:51:05 79° 104° (ESE) 12:55:28 437.445
VELOX 1 28 Apr 12:50:04 12:54:22 49° 289° (WNW) 12:58:40 145.980
YUBILEINY 28 Apr 12:53:00 13:00:59 35° 293° (WNW) 13:08:50 435.215
NANOSAT C BR1 28 Apr 12:53:39 12:55:50 13° 272° (W) 12:57:49 145.865
POPSAT HIP 1 28 Apr 12:58:45 13:00:28 12° 273° (W) 13:01:59 437.405
AIST 1 28 Apr 13:06:14 13:09:39 23° 271° (W) 13:12:58
BUGSAT 1 28 Apr 13:07:24 13:09:13 12° 271° (W) 13:10:52 437.445
DX 1 28 Apr 13:08:30 13:11:25 17° 297° (WNW) 13:14:12 434.975-435.025
AISAT 28 Apr 13:09:26 13:13:24 31° 292° (WNW) 13:17:19 437.250
TISAT 1 28 Apr 13:14:02 13:17:54 33° 96° (E) 13:21:47 437.305
SO-50 28 Apr 13:15:16 13:19:16 26° 321° (NW) 13:23:18 436.795
ISS 28 Apr 13:21:25 13:24:26 34° 341° (NNW) 13:27:29 145.825
AIST 2 28 Apr 13:27:21 13:30:33 21° 247° (WSW) 13:33:38 435.215
Gurwin Techsat 1B 28 Apr 13:31:29 13:34:51 18° 61° (ENE) 13:38:24 435.225
Cosmos 2504 28 Apr 13:32:41 13:41:15 58° 92° (E) 13:49:44 435.465 / 435.565
BEESAT 28 Apr 13:38:56 13:39:02 10° 85° (E) 13:39:27 436.000
Oscar 19 28 Apr 13:40:15 13:45:21 67° 73° (ENE) 13:50:32 437.125/150
SWISSCUBE 28 Apr 13:40:32 13:42:11 12° 87° (E) 13:44:07 437.505
RS-15 28 Apr 13:47:36 13:57:10 39° 109° (ESE) 14:07:08 29.354- 29.394
SPROUT 28 Apr 13:55:45 14:00:05 68° 286° (WNW) 14:04:23 437.525
ESTCUBE 1 28 Apr 13:59:24 14:02:37 19° 296° (WNW) 14:05:44 437.505/2401.250
ITAMSAT 1 28 Apr 14:21:44 14:26:44 52° 71° (ENE) 14:31:46 435.822/435.867
CUBEBUG 1 28 Apr 14:25:05 14:26:53 12° 299° (WNW) 14:28:31 437.445
ITUPSAT 1 28 Apr 14:44:09 14:48:44 46° 99° (E) 14:53:19 437.325
TISAT 1 28 Apr 14:50:05 14:53:34 24° 293° (WNW) 14:56:58 437.305
ISS 28 Apr 14:58:48 15:01:25 22° 1° (N) 15:04:03 145.825
JAS-2 28 Apr 14:59:07 15:05:13 27° 61° (ENE) 15:11:14 435.910
AO-7 28 Apr 15:05:13 15:12:26 36° 58° (ENE) 15:19:49 29.400- 29.500
Gurwin Techsat 1B 28 Apr 15:09:01 15:14:19 72° 257° (WSW) 15:19:40 435.225
BEESAT 28 Apr 15:12:54 15:17:42 90° 158° (SSE) 15:22:28 436.000
SWISSCUBE 28 Apr 15:15:58 15:20:44 79° 286° (WNW) 15:25:29 437.505
GONETS M04 28 Apr 15:21:57 15:27:23 19° 78° (ENE) 15:33:17
Oscar 19 28 Apr 15:22:00 15:25:18 16° 272° (W) 15:28:23 437.125/150
Cosmos 2504 28 Apr 15:27:04 15:35:08 36° 292° (WNW) 15:42:53 435.465 / 435.565
HORYU 2 28 Apr 15:40:30 15:44:51 51° 72° (ENE) 15:49:15 437.375
KKS-1 28 Apr 15:55:16 15:59:39 48° 100° (E) 16:04:00 437.445
RS-15 28 Apr 15:58:10 16:09:01 66° 312° (NW) 16:20:12 29.354- 29.394
ITAMSAT 1 28 Apr 16:02:38 16:06:36 21° 269° (W) 16:10:25 435.822/435.867
VERMONT LUNAR 28 Apr 16:17:52 16:20:33 22° 159° (SSE) 16:23:14 437.305
PCSat 28 Apr 16:18:29 16:23:14 30° 45° (NE) 16:28:02 145.827
ITUPSAT 1 28 Apr 16:22:41 16:26:22 22° 296° (WNW) 16:29:56 437.325
ISS 28 Apr 16:35:16 16:38:22 38° 21° (NNE) 16:41:28 145.825
JAS-2 28 Apr 16:41:48 16:49:42 76° 258° (WSW) 16:57:13 435.910
STARS 28 Apr 16:42:16 16:46:46 86° 285° (WNW) 16:51:13 437.465
MOZHAYETS 4 28 Apr 16:46:15 16:48:09 13° 87° (E) 16:50:17
BEESAT 28 Apr 16:52:54 16:54:53 12° 301° (WNW) 16:56:41 436.000
SWISSCUBE 28 Apr 16:56:45 16:57:53 11° 302° (WNW) 16:58:46 437.505
AO-7 28 Apr 16:56:47 17:04:57 59° 258° (WSW) 17:13:07 29.400- 29.500
DANDE 28 Apr 17:07:41 17:10:45 24° 86° (E) 17:14:39 436.750
GONETS M04 28 Apr 17:14:19 17:23:07 89° 97° (E) 17:32:01
PHONESAT 2.4 28 Apr 17:17:34 17:20:28 23° 159° (SSE) 17:23:23 2401.200-2431.200
HORYU 2 28 Apr 17:18:49 17:21:51 17° 270° (W) 17:24:45 437.375
KKS-1 28 Apr 17:32:44 17:35:58 19° 296° (WNW) 17:39:06 437.445
CUTE-I 28 Apr 17:35:34 17:39:41 24° 63° (ENE) 17:43:55 437.470
Cubesat XI-IV 28 Apr 17:45:44 17:50:13 29° 65° (ENE) 17:54:48 437.490
Cosmos 2499 28 Apr 17:46:19 17:53:26 30° 84° (E) 18:00:35 435.465 / 435.565
CUSAT 1 28 Apr 17:48:51 17:52:49 83° 283° (WNW) 17:58:13 437.405
VERMONT LUNAR 28 Apr 17:54:23 17:57:35 42° 176° (S) 18:00:49 437.305
PCSat 28 Apr 18:01:41 18:06:54 48° 245° (WSW) 18:12:04 145.827
ISS 28 Apr 18:11:40 18:14:44 38° 219° (SW) 18:17:47 145.825
RS-15 28 Apr 18:14:44 18:24:06 30° 343° (NNW) 18:33:41 29.354- 29.394
MOZHAYETS 4 28 Apr 18:21:24 18:26:00 70° 285° (WNW) 18:30:31
STARS 28 Apr 18:21:35 18:22:34 10° 301° (WNW) 18:23:19 437.465
SO-50 28 Apr 18:24:04 18:27:18 17° 32° (NNE) 18:30:37 436.795
JAS-2 28 Apr 18:31:24 18:35:56 15° 277° (W) 18:39:54 435.910
CUBESAT XI-V 28 Apr 18:31:32 18:33:33 13° 87° (E) 18:35:48 437.345
DANDE 28 Apr 18:50:33 18:53:54 27° 296° (WNW) 18:58:08 436.750
PHONESAT 2.4 28 Apr 18:54:51 18:58:17 43° 176° (S) 19:01:43 2401.200-2431.200
HO-68 28 Apr 19:10:45 19:15:04 18° 52° (NE) 19:19:40 435.675
CUTE-I 28 Apr 19:14:19 19:19:29 51° 260° (W) 19:24:40 437.470
GONETS M04 28 Apr 19:14:47 19:21:25 22° 301° (WNW) 19:27:44
PRISM 28 Apr 19:16:47 19:19:46 20° 93° (E) 19:22:50 437.425
Cubesat XI-IV 28 Apr 19:25:11 19:30:12 40° 263° (W) 19:35:12 437.490
VERMONT LUNAR 28 Apr 19:31:39 19:34:45 33° 193° (SSW) 19:37:51 437.305
CUSAT 1 28 Apr 19:36:23 19:37:10 10° 310° (NW) 19:37:42 437.405
Cosmos 2499 28 Apr 19:37:17 19:46:07 67° 283° (WNW) 19:54:36 435.465 / 435.565
M-CUBED/EXP-1 PRIME 28 Apr 19:37:25 19:41:22 42° 103° (ESE) 19:45:00 437.505
BRITE-PL 28 Apr 19:46:39 19:49:57 23° 66° (ENE) 19:53:27 437.365/2234.400
STRAND 1 28 Apr 19:54:16 19:59:03 40° 97° (E) 20:03:53 437.568
SO-50 28 Apr 20:03:43 20:08:42 77° 54° (NE) 20:13:38 436.795
CUBESAT XI-V 28 Apr 20:06:58 20:11:34 69° 285° (WNW) 20:16:09 437.345
SEEDS 28 Apr 20:08:28 20:11:01 16° 64° (ENE) 20:13:43 437.485
AUBIESAT-1 28 Apr 20:16:36 20:20:44 77° 289° (WNW) 20:24:29 437.475
AAUSAT CUBESAT 2 28 Apr 20:17:59 20:20:10 14° 63° (ENE) 20:22:30 437.432
CANX-2 28 Apr 20:21:17 20:24:54 27° 68° (ENE) 20:28:36 2200.000
CUTE 1.7 + AOD 2 28 Apr 20:29:45 20:33:30 30° 69° (ENE) 20:37:19 437.475
RS-15 28 Apr 20:31:35 20:41:02 30° 17° (NNE) 20:50:59 29.354- 29.394
PHONESAT 2.4 28 Apr 20:32:54 20:36:13 35° 192° (SSW) 20:39:32 2401.200-2431.200
PRISM 28 Apr 20:51:36 20:55:23 36° 290° (WNW) 20:59:08 437.425
GOMX 1 28 Apr 20:54:13 20:58:27 74° 75° (ENE) 21:02:58 467.674
HO-68 28 Apr 20:54:38 21:01:48 78° 72° (ENE) 21:09:02 435.675
YUBILEINY 28 Apr 21:03:33 21:10:56 30° 64° (ENE) 21:18:28 435.215
Cosmos 2491 28 Apr 21:03:50 21:05:16 11° 72° (ENE) 21:07:26 435.465 / 435.565
DELFI C3 28 Apr 21:06:42 21:09:10 16° 65° (ENE) 21:11:46 145.870
VERMONT LUNAR 28 Apr 21:10:00 21:11:39 13° 208° (SSW) 21:13:14 437.305
COMPASS 1 28 Apr 21:11:25 21:15:34 57° 74° (ENE) 21:19:45 437.405
CUBEBUG 2 28 Apr 21:11:57 21:15:23 23° 65° (ENE) 21:19:00 437.445
M-CUBED/EXP-1 PRIME 28 Apr 21:12:56 21:15:55 19° 302° (WNW) 21:18:38 437.505
DOVE 4 28 Apr 21:14:31 21:18:50 81° 76° (ENE) 21:23:27 437.250
BRITE-PL 28 Apr 21:24:33 21:28:22 33° 265° (W) 21:32:20 437.365/2234.400
O/OREOS (USA 219) 28 Apr 21:27:31 21:30:38 19° 102° (ESE) 21:33:53 437.305
HUMSAT D 28 Apr 21:28:59 21:29:57 11° 60° (ENE) 21:31:09 437.325/437.525
UWE-3 28 Apr 21:30:37 21:34:22 28° 68° (ENE) 21:38:17 435.000/436.395/437.385
FUNcube-1 28 Apr 21:31:33 21:34:59 23° 66° (ENE) 21:38:33 145.935
UKube-1 28 Apr 21:32:41 21:35:03 15° 62° (ENE) 21:37:33 .
STRAND 1 28 Apr 21:33:49 21:38:07 27° 295° (WNW) 21:42:20 437.568
CINEMA 3 28 Apr 21:34:04 21:38:26 67° 74° (ENE) 21:43:05 145.822/145.860
Cosmos 2499 28 Apr 21:36:13 21:41:13 15° 306° (NW) 21:45:36 435.465 / 435.565
SEEDS 28 Apr 21:42:14 21:46:26 54° 260° (W) 21:50:39 437.485
SO-50 28 Apr 21:45:47 21:48:43 15° 250° (WSW) 21:51:26 436.795
Oscar 11 28 Apr 21:48:52 21:53:09 60° 74° (ENE) 21:57:29 145.826/435.025
AAUSAT CUBESAT 2 28 Apr 21:51:10 21:55:21 61° 259° (W) 21:59:33 437.432
CANX-2 28 Apr 21:56:59 22:00:47 29° 265° (W) 22:04:34 2200.000
ZACube-1 28 Apr 21:57:31 22:01:38 41° 71° (ENE) 22:05:55 437.345
CUTE 1.7 + AOD 2 28 Apr 22:05:46 22:09:26 26° 266° (W) 22:13:04 437.475
PHONESAT 2.4 28 Apr 22:11:53 22:13:54 14° 208° (SSW) 22:15:50 2401.200-2431.200
VELOX 1 28 Apr 22:14:05 22:17:11 20° 65° (ENE) 22:20:26 145.980
DX 1 28 Apr 22:28:18 22:32:31 56° 73° (ENE) 22:36:47 434.975-435.025
AISAT 28 Apr 22:32:31 22:36:20 30° 68° (ENE) 22:40:14 437.250
GOMX 1 28 Apr 22:36:21 22:37:23 11° 276° (W) 22:38:09 467.674
DELFI C3 28 Apr 22:40:00 22:43:58 48° 261° (W) 22:47:57 145.870
RS-15 28 Apr 22:44:55 22:56:18 64° 47° (NE) 23:08:14 29.354- 29.394
HO-68 28 Apr 22:45:01 22:50:23 21° 271° (W) 22:55:29 435.675
CUBEBUG 2 28 Apr 22:47:41 22:51:51 40° 263° (W) 22:56:10 437.445
COMPASS 1 28 Apr 22:49:23 22:51:41 14° 272° (W) 22:53:48 437.405
ANTELSAT 28 Apr 22:51:10 22:54:00 16° 89° (E) 22:57:00 437.575/2403.000
Cosmos 2491 28 Apr 22:51:56 23:00:25 60° 92° (E) 23:09:01 435.465 / 435.565
YUBILEINY 28 Apr 22:59:53 23:08:32 65° 267° (W) 23:17:03 435.215
HUMSAT D 28 Apr 23:00:49 23:05:05 86° 256° (WSW) 23:09:26 437.325/437.525
O/OREOS (USA 219) 28 Apr 23:05:18 23:09:45 48° 299° (WNW) 23:14:11 437.305
UKube-1 28 Apr 23:06:29 23:10:45 61° 258° (WSW) 23:15:03 .
UWE-3 28 Apr 23:06:54 23:10:50 31° 265° (W) 23:14:52 435.000/436.395/437.385
FUNcube-1 28 Apr 23:07:00 23:11:07 38° 264° (W) 23:15:18 145.935
50 SAT 28 Apr 23:11:14 23:15:15 78° 77° (ENE) 23:19:19 437.505
CINEMA 3 28 Apr 23:14:07 23:16:18 13° 274° (W) 23:18:17 145.822/145.860
SPROUT 28 Apr 23:18:15 23:19:59 13° 62° (ENE) 23:21:55 437.525
ESTCUBE 1 28 Apr 23:22:48 23:27:11 54° 73° (ENE) 23:31:36 437.505/2401.250
Cosmos 2504 28 Apr 23:24:54 23:30:39 22° 59° (ENE) 23:36:22 435.465 / 435.565
Oscar 11 28 Apr 23:27:28 23:29:48 14° 272° (W) 23:31:56 145.826/435.025
DUCHIFAT 1 28 Apr 23:32:23 23:35:23 19° 91° (E) 23:38:29 145.980
ZACube-1 28 Apr 23:34:54 23:38:15 20° 269° (W) 23:41:32 437.345
POLYITAN 1 28 Apr 23:35:30 23:38:46 21° 92° (E) 23:42:08 437.675
TIGRISAT 28 Apr 23:38:30 23:43:03 46° 98° (E) 23:47:31 435.000
CUBEBUG 1 28 Apr 23:44:17 23:48:36 79° 75° (ENE) 23:52:56 437.445
UNISAT 6 28 Apr 23:44:21 23:48:59 54° 99° (E) 23:53:32 437.425
VELOX 1 28 Apr 23:49:17 23:53:29 44° 261° (W) 23:57:43 145.980
QB50P1 28 Apr 23:51:36 23:55:24 30° 95° (E) 23:59:14 145.935-145.965
AIST 1 29 Apr 00:00:37 00:03:23 17° 87° (E) 00:06:16
DX 1 29 Apr 00:06:42 00:09:12 14° 270° (W) 00:11:31 434.975-435.025
TISAT 1 29 Apr 00:07:58 00:11:38 31° 69° (ENE) 00:15:22 437.305
AISAT 29 Apr 00:09:09 00:12:57 27° 265° (W) 00:16:42 437.250
QB50P2 29 Apr 00:18:40 00:22:57 61° 101° (E) 00:27:14 145.880/145.840
ANTELSAT 29 Apr 00:26:35 00:31:15 58° 287° (WNW) 00:35:47 437.575/2403.000
NANOSAT C BR1 29 Apr 00:34:18 00:38:37 87° 103° (ESE) 00:42:55 145.865
POPSAT HIP 1 29 Apr 00:39:08 00:43:28 83° 284° (WNW) 00:47:46 437.405
BUGSAT 1 29 Apr 00:45:02 00:49:14 81° 102° (ESE) 00:53:27 437.445
BEESAT 29 Apr 00:45:29 00:48:18 16° 62° (ENE) 00:51:19 436.000
SWISSCUBE 29 Apr 00:48:12 00:51:23 18° 63° (ENE) 00:54:42 437.505
Cosmos 2491 29 Apr 00:50:07 00:57:53 33° 294° (WNW) 01:05:33 435.465 / 435.565
SPROUT 29 Apr 00:51:17 00:55:33 73° 257° (WSW) 00:59:52 437.525
RS-15 29 Apr 00:57:47 01:08:30 44° 249° (WSW) 01:19:26 29.354- 29.394
YUBILEINY 29 Apr 01:00:24 01:03:46 12° 287° (WNW) 01:06:27 435.215
ESTCUBE 1 29 Apr 01:01:34 01:04:27 16° 270° (W) 01:07:10 437.505/2401.250
DUCHIFAT 1 29 Apr 01:07:22 01:11:26 42° 289° (WNW) 01:15:28 145.980
POLYITAN 1 29 Apr 01:10:49 01:14:51 38° 290° (WNW) 01:18:49 437.675
TIGRISAT 29 Apr 01:15:54 01:19:30 22° 295° (WNW) 01:22:58 435.000
Cosmos 2504 29 Apr 01:17:16 01:25:18 81° 264° (W) 01:32:43 435.465 / 435.565
UNISAT 6 29 Apr 01:22:04 01:25:23 19° 296° (WNW) 01:28:32 437.425
QB50P1 29 Apr 01:27:34 01:31:12 26° 292° (WNW) 01:34:46 145.935-145.965
GONETS M04 29 Apr 01:30:25 01:31:26 10° 46° (NE) 01:33:07
AIST 1 29 Apr 01:36:40 01:40:44 41° 283° (WNW) 01:44:49
TISAT 1 29 Apr 01:43:59 01:47:28 24° 266° (W) 01:50:54 437.305
Oscar 19 29 Apr 01:50:58 01:54:47 21° 91° (E) 01:58:45 437.125/150
ITUPSAT 1 29 Apr 01:52:25 01:57:09 65° 73° (ENE) 02:01:55 437.325
QB50P2 29 Apr 01:55:57 01:58:26 15° 297° (WNW) 02:00:44 145.880/145.840
BEESAT 3 29 Apr 01:57:32 02:00:54 26° 115° (ESE) 02:04:22 437.485
BEESAT 2 29 Apr 02:03:37 02:06:57 25° 115° (ESE) 02:10:23 435.950
STARS 29 Apr 02:07:28 02:09:07 12° 60° (ENE) 02:10:58 437.465
NANOSAT C BR1 29 Apr 02:12:49 02:13:52 11° 300° (WNW) 02:14:42 145.865
BEESAT 29 Apr 02:20:55 02:25:41 67° 258° (WSW) 02:30:28 436.000
BUGSAT 1 29 Apr 02:22:56 02:24:10 11° 299° (WNW) 02:25:13 437.445
SWISSCUBE 29 Apr 02:24:09 02:28:52 57° 260° (W) 02:33:35 437.505
ITAMSAT 1 29 Apr 02:34:08 02:37:10 16° 89° (E) 02:40:25 435.822/435.867
CUSAT 1 29 Apr 02:40:41 02:46:15 22° 60° (ENE) 02:52:28 437.405
KKS-1 29 Apr 02:54:55 02:59:14 53° 72° (ENE) 03:03:36 437.445
Cosmos 2504 29 Apr 03:13:11 03:17:24 15° 284° (WNW) 03:21:01 435.465 / 435.565
GONETS M04 29 Apr 03:22:45 03:31:15 49° 72° (ENE) 03:39:46
Gurwin Techsat 1B 29 Apr 03:23:41 03:28:41 40° 97° (E) 03:33:41 435.225
AIST 2 29 Apr 03:25:32 03:29:42 56° 120° (ESE) 03:33:55 435.215
Oscar 19 29 Apr 03:29:26 03:34:31 53° 289° (WNW) 03:39:33 437.125/150
ITUPSAT 1 29 Apr 03:32:45 03:35:34 15° 271° (W) 03:38:12 437.325
BEESAT 3 29 Apr 03:34:59 03:38:47 36° 313° (NW) 03:42:37 437.485
STARS 29 Apr 03:40:36 03:45:00 80° 257° (WSW) 03:49:27 437.465
BEESAT 2 29 Apr 03:41:03 03:44:55 37° 312° (NW) 03:48:49 435.950
DANDE 29 Apr 03:42:55 03:50:05 43° 71° (ENE) 03:58:09 436.750
MOZHAYETS 4 29 Apr 03:49:44 03:52:30 16° 63° (ENE) 03:55:26
JAS-2 29 Apr 03:53:37 03:56:01 13° 81° (E) 03:58:41 435.910
ITAMSAT 1 29 Apr 04:12:06 04:17:15 68° 287° (WNW) 04:22:24 435.822/435.867
CUSAT 1 29 Apr 04:22:12 04:30:02 86° 79° (E) 04:38:26 437.405
KKS-1 29 Apr 04:33:27 04:36:16 16° 270° (W) 04:38:55 437.445
M-CUBED/EXP-1 PRIME 29 Apr 04:54:45 04:56:40 13° 54° (NE) 04:58:47 437.505
AO-7 29 Apr 04:56:19 05:04:10 45° 99° (E) 05:12:05 29.400- 29.500
Gurwin Techsat 1B 29 Apr 05:03:59 05:08:32 29° 295° (WNW) 05:13:00 435.225
AIST 2 29 Apr 05:05:15 05:08:37 21° 320° (NW) 05:11:57 435.215
HORYU 2 29 Apr 05:06:31 05:11:04 83° 105° (ESE) 05:15:32 437.375
GONETS M04 29 Apr 05:19:56 05:28:00 40° 273° (W) 05:35:53
MOZHAYETS 4 29 Apr 05:24:41 05:29:17 63° 259° (W) 05:33:55
DANDE 29 Apr 05:26:05 05:33:29 49° 267° (W) 05:41:35 436.750
Cosmos 2499 29 Apr 05:27:31 05:35:01 50° 73° (ENE) 05:42:02 435.465 / 435.565
AUBIESAT-1 29 Apr 05:31:32 05:35:14 23° 60° (ENE) 05:38:58 437.475
JAS-2 29 Apr 05:36:07 05:42:26 90° 98° (E) 05:48:01 435.910
CUBESAT XI-V 29 Apr 05:36:33 05:39:23 17° 63° (ENE) 05:42:22 437.345
STRAND 1 29 Apr 05:37:37 05:38:20 10° 56° (NE) 05:39:21 437.568
ITAMSAT 1 29 Apr 05:54:52 05:55:55 10° 304° (NW) 05:56:42 435.822/435.867
CUSAT 1 29 Apr 06:06:13 06:12:11 23° 275° (W) 06:18:03 437.405
PRISM 29 Apr 06:08:50 06:11:48 20° 65° (ENE) 06:14:52 437.425
M-CUBED/EXP-1 PRIME 29 Apr 06:26:00 06:30:51 80° 71° (ENE) 06:35:39 437.505
HORYU 2 29 Apr 06:45:13 06:47:06 12° 300° (WNW) 06:48:48 437.375
AO-7 29 Apr 06:49:12 06:57:03 47° 298° (WNW) 07:04:49 29.400- 29.500
PCSat 29 Apr 07:03:42 07:06:58 17° 106° (ESE) 07:10:29 145.827
AUBIESAT-1 29 Apr 07:05:03 07:09:43 49° 256° (WSW) 07:14:20 437.475
STRAND 1 29 Apr 07:11:40 07:16:43 70° 73° (ENE) 07:21:49 437.568
CUBESAT XI-V 29 Apr 07:11:51 07:16:26 59° 260° (W) 07:20:59 437.345
Cosmos 2499 29 Apr 07:21:12 07:27:52 32° 275° (W) 07:34:01 435.465 / 435.565
JAS-2 29 Apr 07:22:47 07:26:35 16° 305° (NW) 07:29:56 435.910
CUTE-I 29 Apr 07:29:30 07:34:45 57° 100° (E) 07:40:00 437.470
O/OREOS (USA 219) 29 Apr 07:34:24 07:38:45 47° 61° (ENE) 07:43:05 437.305
Cubesat XI-IV 29 Apr 07:40:17 07:45:37 71° 102° (ESE) 07:50:56 437.490
PRISM 29 Apr 07:43:07 07:47:02 39° 262° (W) 07:50:57 437.425
M-CUBED/EXP-1 PRIME 29 Apr 08:03:48 08:06:16 13° 268° (W) 08:08:28 437.505
HO-68 29 Apr 08:23:48 08:26:03 12° 83° (E) 08:28:51 435.675
PCSat 29 Apr 08:44:26 08:49:50 74° 302° (WNW) 08:55:19 145.827
AO-7 29 Apr 08:44:45 08:47:56 12° 320° (NW) 08:50:44 29.400- 29.500
STRAND 1 29 Apr 08:53:28 08:56:32 15° 272° (W) 08:59:22 437.568
GOMX 1 29 Apr 08:54:08 08:58:12 23° 91° (E) 09:02:32 467.674
Cosmos 2491 29 Apr 09:00:22 09:08:02 33° 66° (ENE) 09:15:51 435.465 / 435.565
CUTE-I 29 Apr 09:10:26 09:14:29 22° 298° (WNW) 09:18:24 437.470
DOVE 4 29 Apr 09:11:58 09:16:00 23° 91° (E) 09:20:13 437.250
O/OREOS (USA 219) 29 Apr 09:14:42 09:17:52 18° 258° (WSW) 09:20:52 437.305
Cubesat XI-IV 29 Apr 09:21:38 09:25:13 18° 299° (WNW) 09:28:37 437.490
SEEDS 29 Apr 09:25:38 09:28:55 22° 92° (E) 09:32:15 437.485
BRITE-PL 29 Apr 09:25:47 09:30:58 64° 100° (E) 09:36:29 437.365/2234.400
CINEMA 3 29 Apr 09:28:16 09:31:22 17° 88° (E) 09:34:41 145.822/145.860
AAUSAT CUBESAT 2 29 Apr 09:33:30 09:36:25 19° 91° (E) 09:39:26 437.432
CANX-2 29 Apr 09:40:12 09:44:16 41° 97° (E) 09:48:19 2200.000
CUTE 1.7 + AOD 2 29 Apr 09:48:41 09:52:50 46° 98° (E) 09:56:56 437.475
ANTELSAT 29 Apr 09:51:52 09:54:59 19° 63° (ENE) 09:58:17 437.575/2403.000
POPSAT HIP 1 29 Apr 10:01:58 10:02:16 10° 60° (ENE) 10:02:48 437.405
YUBILEINY 29 Apr 10:07:12 10:14:32 32° 84° (E) 10:22:05 435.215
HO-68 29 Apr 10:08:06 10:15:18 70° 103° (ESE) 10:22:27 435.675
AIST 2 29 Apr 10:08:54 10:10:33 12° 31° (NNE) 10:12:18 435.215
BEESAT 3 29 Apr 10:14:20 10:17:57 29° 45° (NE) 10:21:34 437.485
DELFI C3 29 Apr 10:18:31 10:21:28 20° 92° (E) 10:24:28 145.870
BEESAT 2 29 Apr 10:20:53 10:24:31 29° 45° (NE) 10:28:07 435.950
SO-50 29 Apr 10:21:24 10:24:17 17° 111° (ESE) 10:27:23 436.795
DUCHIFAT 1 29 Apr 10:26:52 10:29:41 18° 65° (ENE) 10:32:38 145.980
COMPASS 1 29 Apr 10:28:50 10:33:04 88° 103° (ESE) 10:37:15 437.405
POLYITAN 1 29 Apr 10:30:31 10:33:37 21° 66° (ENE) 10:36:50 437.675
PCSat 29 Apr 10:30:48 10:34:17 17° 325° (NW) 10:37:39 145.827
GOMX 1 29 Apr 10:31:32 10:36:35 51° 288° (WNW) 10:41:49 467.674
CUBEBUG 2 29 Apr 10:36:52 10:41:22 39° 96° (E) 10:45:50 437.445
TIGRISAT 29 Apr 10:38:36 10:42:59 49° 71° (ENE) 10:47:31 435.000
UNISAT 6 29 Apr 10:44:37 10:49:07 58° 73° (ENE) 10:53:44 437.425
HUMSAT D 29 Apr 10:44:53 10:47:12 15° 88° (E) 10:49:41 437.325/437.525
QB50P1 29 Apr 10:46:07 10:49:43 28° 68° (ENE) 10:53:24 145.935-145.965
DOVE 4 29 Apr 10:49:01 10:54:00 50° 288° (WNW) 10:59:06 437.250
ISS 29 Apr 10:51:14 10:53:56 25° 138° (SE) 10:56:41 145.825
UKube-1 29 Apr 10:53:09 10:56:16 19° 92° (E) 10:59:28 .
FUNcube-1 29 Apr 10:53:36 10:57:52 37° 96° (E) 11:02:06 145.935
UWE-3 29 Apr 10:54:34 10:59:07 48° 98° (E) 11:03:39 435.000/436.395/437.385
Cosmos 2491 29 Apr 10:56:51 11:05:33 61° 268° (W) 11:14:09 435.465 / 435.565
SEEDS 29 Apr 11:00:58 11:04:51 34° 290° (WNW) 11:08:39 437.485
CINEMA 3 29 Apr 11:04:04 11:09:03 64° 286° (WNW) 11:14:01 145.822/145.860
BRITE-PL 29 Apr 11:05:23 11:09:07 20° 296° (WNW) 11:12:52 437.365/2234.400
AAUSAT CUBESAT 2 29 Apr 11:08:19 11:12:15 40° 289° (WNW) 11:16:08 437.432
Oscar 11 29 Apr 11:10:35 11:14:57 83° 285° (WNW) 11:19:17 145.826/435.025
QB50P2 29 Apr 11:13:04 11:17:11 56° 73° (ENE) 11:21:23 145.880/145.840
CANX-2 29 Apr 11:16:48 11:19:58 20° 294° (WNW) 11:22:59 2200.000
ZACube-1 29 Apr 11:20:27 11:25:05 72° 101° (ESE) 11:29:39 437.345
CUTE 1.7 + AOD 2 29 Apr 11:25:29 11:28:26 18° 295° (WNW) 11:31:15 437.475
ANTELSAT 29 Apr 11:26:54 11:31:23 54° 261° (W) 11:36:00 437.575/2403.000
NANOSAT C BR1 29 Apr 11:28:15 11:32:27 80° 76° (ENE) 11:36:43 145.865
CUBEBUG 1 29 Apr 11:33:13 11:35:12 13° 88° (E) 11:37:23 437.445
POPSAT HIP 1 29 Apr 11:33:19 11:37:32 90° 250° (WSW) 11:41:49 437.405
BUGSAT 1 29 Apr 11:36:39 11:40:39 69° 74° (ENE) 11:44:40 437.445
VELOX 1 29 Apr 11:38:12 11:42:05 29° 95° (E) 11:46:01 145.980
AIST 1 29 Apr 11:41:48 11:45:59 52° 78° (ENE) 11:50:10
AIST 2 29 Apr 11:45:50 11:50:04 61° 52° (NE) 11:54:12 435.215
DX 1 29 Apr 11:50:57 11:55:21 85° 102° (ESE) 11:59:44 434.975-435.025
BEESAT 3 29 Apr 11:52:17 11:55:59 32° 243° (WSW) 11:59:35 437.485
DELFI C3 29 Apr 11:53:02 11:56:45 35° 289° (WNW) 12:00:24 145.870
HO-68 29 Apr 11:56:41 12:02:30 27° 302° (WNW) 12:08:08 435.675
AISAT 29 Apr 11:57:25 12:01:45 48° 99° (E) 12:06:07 437.250
BEESAT 2 29 Apr 11:58:54 12:02:39 33° 243° (WSW) 12:06:18 435.950
SO-50 29 Apr 11:59:40 12:04:20 67° 308° (NW) 12:09:11 436.795
DUCHIFAT 1 29 Apr 12:01:10 12:05:13 45° 261° (W) 12:09:17 145.980
YUBILEINY 29 Apr 12:02:12 12:10:56 60° 284° (WNW) 12:19:38 435.215
POLYITAN 1 29 Apr 12:05:19 12:09:18 39° 262° (W) 12:13:19 437.675
Cosmos 2504 29 Apr 12:06:36 12:11:46 18° 78° (ENE) 12:17:21 435.465 / 435.565
COMPASS 1 29 Apr 12:07:38 12:08:09 10° 299° (WNW) 12:08:25 437.405
CUBEBUG 2 29 Apr 12:13:55 12:17:52 25° 294° (WNW) 12:21:42 437.445
TIGRISAT 29 Apr 12:16:47 12:20:04 19° 270° (W) 12:23:16 435.000
HUMSAT D 29 Apr 12:19:06 12:23:23 56° 287° (WNW) 12:27:35 437.325/437.525
